TimeEST,TemperatureF,Dew PointF,Humidity,Sea Level PressureIn,VisibilityMPH,Wind Direction,Wind SpeedMPH,Gust SpeedMPH,PrecipitationIn,Events,Conditions,WindDirDegrees,DateUTC
12:15 AM,41.7,36.0,80,29.96,10.0,South,5.8,-,N/A,,Scattered Clouds,190,2012-12-07 05:15:00
12:35 AM,42.1,36.0,79,29.95,10.0,South,6.9,-,N/A,,Scattered Clouds,190,2012-12-07 05:35:00
1:15 AM,41.5,36.0,81,29.95,10.0,SSW,4.6,-,N/A,,Scattered Clouds,200,2012-12-07 06:15:00
1:35 AM,41.4,36.1,82,29.96,10.0,SSW,4.6,-,N/A,,Scattered Clouds,200,2012-12-07 06:35:00
1:55 AM,41.0,36.1,83,29.95,10.0,SSW,4.6,-,N/A,,Scattered Clouds,210,2012-12-07 06:55:00
2:15 AM,40.6,36.3,85,29.96,10.0,SSW,6.9,-,N/A,,Mostly Cloudy,210,2012-12-07 07:15:00
2:35 AM,41.2,36.9,85,29.96,10.0,SW,5.8,-,N/A,,Mostly Cloudy,220,2012-12-07 07:35:00
3:15 AM,41.9,37.0,83,29.96,10.0,SSW,4.6,-,N/A,,Overcast,210,2012-12-07 08:15:00
3:35 AM,41.9,37.0,83,29.95,10.0,Calm,Calm,-,N/A,,Overcast,0,2012-12-07 08:35:00
3:55 AM,41.4,36.9,84,29.94,10.0,South,3.5,-,N/A,,Overcast,180,2012-12-07 08:55:00
4:15 AM,41.0,37.0,86,29.94,10.0,South,5.8,-,N/A,,Overcast,190,2012-12-07 09:15:00
4:35 AM,41.2,37.4,86,29.95,10.0,Calm,Calm,-,N/A,,Overcast,0,2012-12-07 09:35:00
4:55 AM,41.0,37.4,87,29.94,10.0,South,4.6,-,N/A,,Overcast,190,2012-12-07 09:55:00
5:15 AM,41.0,37.6,88,29.94,10.0,Calm,Calm,-,N/A,,Overcast,0,2012-12-07 10:15:00
5:35 AM,41.0,37.6,88,29.94,10.0,Calm,Calm,-,N/A,,Overcast,0,2012-12-07 10:35:00
6:15 AM,41.2,38.1,89,29.95,10.0,SW,3.5,-,N/A,,Overcast,230,2012-12-07 11:15:00
6:35 AM,41.4,37.9,88,29.96,10.0,SW,5.8,-,N/A,,Overcast,230,2012-12-07 11:35:00
6:55 AM,41.9,38.3,87,29.96,7.0,West,4.6,-,N/A,,Overcast,260,2012-12-07 11:55:00
7:15 AM,41.5,38.3,88,29.96,7.0,Calm,Calm,-,N/A,,Light Drizzle,0,2012-12-07 12:15:00
7:35 AM,41.7,38.7,89,29.96,7.0,Calm,Calm,-,N/A,Rain,Light Rain,0,2012-12-07 12:35:00
7:55 AM,41.5,38.7,89,29.96,7.0,Calm,Calm,-,N/A,Rain,Light Rain,0,2012-12-07 12:55:00
8:15 AM,41.4,39.0,91,29.96,7.0,Calm,Calm,-,0.01,Rain,Light Rain,0,2012-12-07 13:15:00
8:35 AM,41.2,39.4,93,29.97,3.0,SW,3.5,-,0.01,Rain,Light Rain,220,2012-12-07 13:35:00
9:15 AM,41.7,40.3,95,29.97,2.5,Calm,Calm,-,0.01,Rain,Light Rain,0,2012-12-07 14:15:00
9:35 AM,41.9,40.5,95,29.97,2.0,Calm,Calm,-,0.01,,Overcast,0,2012-12-07 14:35:00
9:55 AM,41.9,40.6,95,29.96,2.0,ESE,3.5,-,0.01,,Overcast,110,2012-12-07 14:55:00
10:15 AM,42.3,41.2,96,29.96,2.5,Calm,Calm,-,N/A,,Overcast,0,2012-12-07 15:15:00
10:35 AM,42.8,41.7,96,29.96,2.5,East,3.5,-,N/A,,Overcast,90,2012-12-07 15:35:00
10:55 AM,43.0,41.9,96,29.98,2.0,South,9.2,-,N/A,,Overcast,180,2012-12-07 15:55:00
11:15 AM,43.3,42.4,97,29.98,3.0,South,8.1,-,N/A,,Overcast,180,2012-12-07 16:15:00
11:35 AM,44.4,43.0,95,29.97,5.0,South,8.1,-,N/A,,Overcast,180,2012-12-07 16:35:00
11:55 AM,45.3,43.0,92,29.96,5.0,South,6.9,-,N/A,,Overcast,170,2012-12-07 16:55:00
12:15 PM,45.5,43.0,91,29.94,4.0,SSE,6.9,-,N/A,,Overcast,160,2012-12-07 17:15:00
12:35 PM,45.5,43.3,92,29.92,2.5,SSE,6.9,-,0.01,Rain,Light Rain,160,2012-12-07 17:35:00
12:55 PM,45.5,43.7,93,29.91,3.0,SSE,8.1,-,0.02,Rain,Light Rain,160,2012-12-07 17:55:00
1:15 PM,45.9,44.2,94,29.91,3.0,SSE,8.1,-,0.01,Rain,Light Rain,160,2012-12-07 18:15:00
1:35 PM,46.0,44.6,95,29.91,3.0,South,8.1,-,0.01,,Overcast,170,2012-12-07 18:35:00
1:55 PM,46.2,44.6,94,29.90,2.5,South,8.1,-,0.02,,Overcast,170,2012-12-07 18:55:00
2:15 PM,46.4,45.0,95,29.90,2.5,South,6.9,-,N/A,,Overcast,170,2012-12-07 19:15:00
2:35 PM,46.6,45.1,95,29.89,3.0,SSE,5.8,-,N/A,,Overcast,160,2012-12-07 19:35:00
2:55 PM,46.8,45.5,95,29.87,4.0,Calm,Calm,-,0.01,,Overcast,0,2012-12-07 19:55:00
3:15 PM,46.9,45.5,95,29.87,4.0,Calm,Calm,-,N/A,,Overcast,0,2012-12-07 20:15:00
3:35 PM,46.8,45.5,95,29.88,4.0,Calm,Calm,-,N/A,,Overcast,0,2012-12-07 20:35:00
4:15 PM,46.8,45.5,95,29.88,2.0,Calm,Calm,-,N/A,Rain,Light Rain,0,2012-12-07 21:15:00
4:35 PM,46.8,45.5,95,29.87,3.0,SE,4.6,-,0.01,,Overcast,130,2012-12-07 21:35:00
4:55 PM,46.6,45.3,95,29.86,4.0,ESE,5.8,-,0.01,,Overcast,120,2012-12-07 21:55:00
5:15 PM,46.4,45.1,95,29.86,3.0,SE,5.8,-,N/A,,Overcast,130,2012-12-07 22:15:00
5:35 PM,46.0,44.8,95,29.85,4.0,East,4.6,-,N/A,,Overcast,100,2012-12-07 22:35:00
5:55 PM,45.7,44.2,95,29.88,4.0,Calm,Calm,-,0.02,Rain,Light Rain,0,2012-12-07 22:55:00
6:15 PM,45.5,44.2,95,29.86,5.0,ENE,5.8,-,0.01,Rain,Light Rain,70,2012-12-07 23:15:00
6:35 PM,45.5,44.4,96,29.86,5.0,East,6.9,-,0.01,,Overcast,90,2012-12-07 23:35:00
7:15 PM,45.5,44.6,97,29.86,3.0,NNE,6.9,-,0.02,Rain,Light Rain,20,2012-12-08 00:15:00
7:35 PM,45.5,44.4,96,29.85,4.0,NE,8.1,-,0.03,Rain,Light Rain,50,2012-12-08 00:35:00
7:55 PM,45.3,44.2,96,29.86,3.0,NE,6.9,-,0.03,,Overcast,50,2012-12-08 00:55:00
8:15 PM,45.1,44.1,96,29.84,4.0,NE,9.2,-,0.01,Rain,Light Rain,50,2012-12-08 01:15:00
8:35 PM,45.1,44.2,97,29.85,3.0,NE,6.9,-,0.02,,Overcast,50,2012-12-08 01:35:00
9:15 PM,45.1,44.2,97,29.84,2.5,ENE,8.1,-,0.01,Rain,Light Rain,70,2012-12-08 02:15:00
9:35 PM,45.1,44.2,97,29.84,2.5,ENE,6.9,-,0.01,Rain,Light Rain,70,2012-12-08 02:35:00
9:55 PM,45.1,44.2,97,29.83,2.5,ENE,6.9,-,0.01,,Overcast,70,2012-12-08 02:55:00
10:15 PM,45.0,44.1,97,29.84,2.5,ENE,5.8,-,N/A,,Overcast,70,2012-12-08 03:15:00
10:35 PM,45.1,44.2,97,29.83,2.5,East,4.6,-,N/A,,Overcast,80,2012-12-08 03:35:00
10:55 PM,45.1,44.2,97,29.83,2.5,East,4.6,-,N/A,,Overcast,90,2012-12-08 03:55:00
11:15 PM,45.1,44.2,97,29.83,2.5,East,4.6,-,N/A,Rain,Light Rain,90,2012-12-08 04:15:00
11:35 PM,45.1,44.2,97,29.83,1.8,East,3.5,-,N/A,,Overcast,100,2012-12-08 04:35:00
11:55 PM,45.1,44.2,97,29.83,1.8,Calm,Calm,-,N/A,,Overcast,0,2012-12-08 04:55:00